OPS 4682 DEB, 51490

Orbit data source: Space-Track

OPS 4682 DEB, 51490 is space debris in LEO originally from a launch on Sat, 03 Apr 1965 UTC launched from the Air Force Western Test Range (AFWTR). Debris objects in space refer to the collection of defunct objects orbiting the Earth. Examples of debris include non-operational satellites, rocket bodies, and fragments generated from explosions, collisions, or faulty payload assembly.

Loading next visibility...
Identifier
51490, 1965-027GA
Orbit
LEO
Country
Flag of USUS
Related business
Manufacturer
Unknown
Mission
Spacecraft
Bus & Motor
Unknown
Mass
Unknown
Launch date (UTC)
1965-04-03 (61 years ago)
Launch vehicle
Unknown
Launch site
Air Force Western Test Range (AFWTR)
Object type
Payload
Rocket body
Debris
Shape & HBR
Unknown
Radar Cross Section
Medium (>0.1 m² and <1 m²)

Expand to show TLE details & history
Last TLE update: 2 days ago

TLE from 2 days ago
0 OPS 4682 DEB
1 51490U 65027GA  26206.72612176  .00000253  00000-0  87066-3 0  9997
2 51490  90.2439   7.0513 0020250  82.4224 277.9195 12.95281983550463
Epoch: 2026-07-25T17:25Z
TLE epoch observation values (Epoch: 2026-07-25T17:25:36.920Z)
Latitude
0.00003°
Longitude
162.2132°
Altitude
1,281.398 km
Speed
7.216 km/s
True Right ascension
00h 28m 12s
True Declination
0° 00' 00"
Sunlit
Object was in daylight at epoch
Visualization orbit readout
Latitude
Unknown
Longitude
Unknown
Altitude
Unknown
Speed
Unknown
Apparent Right ascension
Unknown
Apparent Declination
Unknown
Sunlit
N/A
Visualization observer readout
Local Sidereal Time
14:12:26
Azimuth
Unknown
Elevation
Unknown
Doppler factor
Unknown
Orbital elements
Apogee altitude
1,293.265 km
Perigee altitude
1,262.259 km
Semi-major axis
7,655.899 km
Eccentricity
0.00203
Inclination
90.2439°
RAAN
7.0513°
Arg. of periapsis
82.4224°
True anomaly
277.68959°
Mean anomaly
277.9195°
Eccentric anomaly
277.80455°
Mean motion
3.24003 °/min
Orbital period
111.11 mins
BSTAR
0.00087066
Loading maneuver chart data...
Computing Atmospheric mass density...
Loading historical data...
Loading historical data...
Loading historical data...
Loading historical data...
Loading historical data...
Loading historical data...
Loading historical data...

Documentation

Showing up to 5 results
|